User: anonymous   Login
Location: Unspecified
(0.0000°N, 0.0000°E)
Time: 18:46:32
(UTC+00:00)
Language:

USA 200 - Orbit

View from above orbital plane
View from above orbital plane
View from above satellite
View from above satellite

Ground track
Ground track

The orbit data is extracted from the following two-line orbital elements,

1 32706U 08010A   17112.49629202 0.00000000  00000-0  00000-0 0    06
2 32706  63.5641 353.6003 7149161 271.0279  15.4113  2.00618000    04
Epoch (UTC): 22 April 2017 11:54:39
Eccentricity: 0.7149161
inclination: 63.5641°
perigee height: 1192 km
apogee height: 39162 km
right ascension of ascending node: 353.6003°
argument of perigee: 271.0279°
revolutions per day: 2.00618000
mean anomaly at epoch: 15.4113°
orbit number at epoch: 0

The dashed part of the orbit path shows where the satellite is in the earth's shadow,  

DLR